[[{"header":{"parameterUnit":"m.s-1","parameterCategory":1,"la1":30.2991,"la2":30.254,"lo1":-89.0895,"lo2":-89.0444,"dy":0.0017,"dx":0.0017,"nx":28,"ny":28,"refTime":"2023-03-17T21:00:00:Z","depth":0,"parameterNumber":2,"parameterNumberName":"U-component_of_WINDS"},"data":[0,0,0,0,0,0,0,0,0,0,0,0,0,0,0,0,0,0,0,0,0,0,0,0,0,0,0,0,0,0,0,0,0,0,0,0,0,0,0,0,0,0,0,0,0,0,0,0,0,0,0,0,0,0,0,0,0,0,2.4005,2.4005,0,2.4004,2.4004,2.4003,2.3972,2.3972,2.3971,2.397,2.3968,2.3969,2.397,0,0,0,0,0,0,0,0,0,0,0,0,0,2.3981,2.3981,2.4005,2.4005,2.4005,2.4004,2.4004,2.4003,2.3973,2.3972,2.3971,2.397,2.3968,2.3969,2.397,0,0,0,0,0,0,0,0,0,0,0,0,0,2.3986,2.3982,2.4005,2.3989,2.3988,2.4004,2.4004,2.4003,2.3973,2.3972,2.397,2.3969,2.3968,2.3969,2.397,2.4,0,0,2.3973,2.3974,0,0,0,0,0,0,0,0,2.3986,2.3987,2.3992,2.399,2.3989,2.3987,2.3994,2.4002,2.3973,2.3978,2.397,2.3969,2.3975,2.3976,2.3978,2.4,2.4,2.3973,2.3974,2.3974,2.3975,0,0,0,0,0,0,0,2.3986,2.3987,2.4004,2.3992,2.399,2.3982,2.3982,2.3996,2.3984,2.3978,2.3976,2.3976,2.3974,2.3977,2.3978,2.4,2.3973,2.3974,2.3975,2.3975,2.4048,2.4049,0,0,0,0,0,0,2.3988,2.3987,2.4004,2.4004,2.3985,2.3984,2.3983,2.3989,2.3983,2.3981,2.3977,2.3974,2.3976,2.3977,2.3978,2.4013,2.3974,2.3975,2.3976,2.4046,2.4048,2.4049,0,0,0,0,0,0,2.3987,2.3989,2.4004,2.3995,2.3996,2.3985,2.3992,2.3989,2.3992,2.3983,2.398,2.3982,2.3975,2.3976,2.3995,2.4013,2.3976,2.3977,2.4045,2.4047,2.4049,2.4085,0,0,0,0,0,0,2.3987,2.3989,2.4001,2.3996,2.3997,2.4022,2.3993,2.399,2.3994,2.3991,2.3987,2.3985,2.3974,2.3994,2.3996,2.4014,2.3977,2.4043,2.4046,2.4048,2.4082,2.4087,2.4092,0,0,0,0,0,2.3986,2.4011,2.4002,2.4004,2.4011,2.4023,2.4024,2.4011,2.3996,2.4007,2.4001,2.3985,2.4011,2.3996,2.3998,2.4016,2.4042,2.4045,2.4048,2.4079,2.4086,2.4092,0,0,0,0,0,0,2.4018,2.401,2.4,2.4024,2.4024,2.4018,2.4032,2.4019,2.4024,2.402,2.4004,2.4004,2.4025,2.4022,2.4006,2.4046,2.4023,2.4027,2.4047,2.4053,2.4058,2.4059,2.3978,0,0,0,0,0,2.4028,2.4039,2.4031,2.4053,2.4054,2.4043,2.4047,2.4038,2.4037,2.4038,2.4033,2.4034,2.4042,2.4047,2.4054,2.4081,2.408,2.4095,2.41,2.4105,2.4108,2.4123,2.4129,2.4059,2.4059,2.4059,0,0,2.4049,2.4045,2.4053,2.4059,2.4058,2.407,2.4043,2.4056,2.4064,2.4039,2.4057,2.4054,2.4053,2.4077,2.4087,2.4075,2.4127,2.4108,2.4112,2.4113,2.4126,2.4133,2.4139,2.4061,2.406,2.406,0,0,2.4092,2.409,2.4109,2.4109,2.4108,2.4101,2.4106,2.4101,2.4098,2.4116,2.4098,2.4107,2.4121,2.4122,2.4124,2.4168,2.4154,2.4171,2.4199,2.4213,2.4219,2.4224,2.424,2.4246,2.4174,2.4175,2.4175,0,2.4117,2.4134,2.412,2.4134,2.4137,2.4116,2.4135,2.4135,2.4137,2.414,2.4127,2.4145,2.4143,2.4166,2.4177,2.418,2.4185,2.4171,2.4219,2.4224,2.4228,2.4243,2.425,2.4177,2.4176,2.4176,2.4176,0,2.4165,2.4177,2.4192,2.4195,2.42,2.4216,2.4205,2.4211,2.4201,2.4196,2.4214,2.4211,2.4217,2.4222,2.4212,2.4244,2.4237,2.4222,2.4199,2.4237,2.4251,2.4257,2.418,2.4179,2.4178,2.4178,0,0,2.4228,2.4224,2.4229,2.4231,2.4229,2.4238,2.4253,2.4259,2.4266,2.4268,2.4281,2.4294,2.428,2.4282,2.4272,2.4285,2.4321,2.4269,2.4268,2.4279,2.4356,2.4368,2.4375,2.4311,2.4312,2.4313,2.4356,0,2.427,2.4297,2.4285,2.4313,2.4323,2.4304,2.4317,2.4318,2.4313,2.4321,2.4316,2.4325,2.4306,2.4308,2.4319,2.4314,2.4336,2.4311,2.4323,2.4324,2.4324,2.4382,2.4394,2.4435,2.4362,2.4363,2.4363,0,2.4323,2.4328,2.4356,2.4353,2.4357,2.437,2.4375,2.4383,2.4384,2.4379,2.4382,2.437,2.4385,2.4362,2.4383,2.4366,2.4371,2.4369,2.437,2.4371,2.4346,2.4384,2.4447,2.4454,2.4372,2.4371,2.437,0,2.4366,2.438,2.4399,2.4401,2.4397,2.4407,2.4406,2.4405,2.441,2.4414,2.4417,2.4423,2.4427,2.4432,2.4421,2.4406,2.4444,2.442,2.4441,2.4441,2.4449,2.4449,2.4514,2.4452,2.4452,2.4452,2.4452,0,2.4414,2.4433,2.4419,2.443,2.4451,2.4437,2.4458,2.4455,2.4454,2.4465,2.4448,2.4459,2.4444,2.4453,2.4445,2.4464,2.4465,2.4462,2.446,2.4464,2.4464,2.4467,2.4464,2.4454,2.4453,2.4453,2.4453,0,2.4466,2.4457,2.4477,2.4473,2.4472,2.4487,2.4483,2.4494,2.4488,2.4502,2.4505,2.4496,2.4506,2.4496,2.4505,2.45,2.4525,2.4518,2.4525,2.4523,2.4544,2.4542,2.4613,2.4622,2.4554,2.4555,2.4555,0,2.4498,2.4512,2.4509,2.4515,2.4515,2.4526,2.4531,2.4518,2.4524,2.4525,2.4536,2.4545,2.4551,2.4568,2.4562,2.4569,2.4563,2.4587,2.4564,2.4568,2.4564,2.4563,2.4564,2.4592,2.4593,2.4593,2.4594,0,2.4554,2.455,2.4557,2.4564,2.4571,2.4575,2.4578,2.4584,2.4571,2.4579,2.4589,2.4594,2.4604,2.4613,2.4618,2.4617,2.4604,2.4601,2.4607,2.4611,2.4614,2.4613,2.4538,2.46,2.4599,2.4599,2.4599,2.4598,2.4597,2.4609,2.4609,2.4618,2.462,2.4623,2.4633,2.4629,2.4637,2.4644,2.4636,2.4649,2.4649,2.4655,2.4656,2.4666,2.4656,2.4663,2.4665,2.4667,2.467,2.4613,2.4667,2.4666,2.4666,2.4666,2.4666,0,2.4653,2.4653,2.4662,2.4667,2.4674,2.4661,2.4664,2.4671,2.4683,2.4684,2.4691,2.4703,2.4712,2.4707,2.4714,2.4723,2.4717,2.4726,2.4725,2.4725,2.4679,2.4674,2.473,2.473,2.473,2.473,2.473,2.473,2.4684,2.4703,2.4698,2.4718,2.4717,2.4729,2.4732,2.4735,2.4737,2.4751,2.4758,2.4755,2.4754,2.4761,2.4769,2.4767,2.4771,2.4781,2.4778,2.4734,2.4728,2.4722,2.4717,2.4782,2.4782,2.4823,2.4823,2.4824]},{"header":{"parameterUnit":"m.s-1","parameterCategory":1,"la1":30.2991,"la2":30.254,"lo1":-89.0895,"lo2":-89.0444,"dy":0.0017,"dx":0.0017,"nx":28,"ny":28,"refTime":"2023-03-17T21:00:00:Z","depth":0,"parameterNumber":3,"parameterNumberName":"V-component_of_WINDS"},"data":[0,0,0,0,0,0,0,0,0,0,0,0,0,0,0,0,0,0,0,0,0,0,0,0,0,0,0,0,0,0,0,0,0,0,0,0,0,0,0,0,0,0,0,0,0,0,0,0,0,0,0,0,0,0,0,0,0,0,-1.0323,-1.0316,0,-0.9728,-0.9721,-0.9714,-0.9465,-0.9466,-0.9468,-0.9469,-0.8849,-0.8832,-0.8814,0,0,0,0,0,0,0,0,0,0,0,0,0,-1.1234,-1.1219,-1.0323,-1.0316,-1.0308,-0.9729,-0.9721,-0.9713,-0.9465,-0.9466,-0.9468,-0.9469,-0.8855,-0.8834,-0.8813,0,0,0,0,0,0,0,0,0,0,0,0,0,-1.0759,-1.1214,-1.0325,-1.0115,-1.009,-0.9731,-0.9721,-0.9711,-0.9465,-0.9466,-0.9468,-0.947,-0.8862,-0.8836,-0.881,-0.8611,0,0,-0.8729,-0.8718,0,0,0,0,0,0,0,0,-1.0786,-1.0726,-1.0153,-1.0129,-1.0101,-0.9673,-0.9815,-0.9341,-0.9464,-0.9702,-0.9469,-0.9471,-0.9121,-0.9073,-0.8957,-0.8582,-0.8555,-0.8727,-0.8711,-0.8699,-0.8692,0,0,0,0,0,0,0,-1.082,-1.075,-1.0087,-1.0145,-1.0113,-1.0048,-0.9982,-0.9724,-0.9408,-0.9681,-0.9662,-0.9595,-0.9107,-0.8984,-0.8941,-0.8546,-0.8727,-0.8704,-0.8688,-0.8677,-0.7974,-0.7971,0,0,0,0,0,0,-1.0889,-1.0779,-1.0106,-1.0069,-1.0455,-1.003,-0.9956,-0.9808,-0.941,-0.9352,-0.9595,-0.9586,-0.9028,-0.8972,-0.8918,-0.8656,-0.87,-0.8675,-0.866,-0.7977,-0.7973,-0.797,0,0,0,0,0,0,-1.0909,-1.0831,-1.013,-1.0419,-1.0325,-1.0012,-0.9848,-0.9796,-0.9672,-0.9345,-0.9286,-0.9527,-0.9027,-0.8955,-0.8689,-0.8631,-0.8663,-0.8639,-0.798,-0.7976,-0.7972,-0.8133,0,0,0,0,0,0,-1.0936,-1.084,-1.0763,-1.0419,-1.031,-0.9915,-0.9844,-0.9783,-0.9628,-0.9612,-0.9266,-0.9211,-0.9023,-0.873,-0.8663,-0.8595,-0.8618,-0.7984,-0.7978,-0.7973,-0.8131,-0.8135,-0.8138,0,0,0,0,0,-1.097,-1.0831,-1.0761,-1.0681,-1.0209,-0.9912,-0.9849,-0.9639,-0.9625,-0.9543,-0.9333,-0.9222,-0.865,-0.8705,-0.8627,-0.8551,-0.7986,-0.798,-0.7974,-0.813,-0.8134,-0.8138,0,0,0,0,0,0,-1.1172,-1.0782,-1.07,-1.0446,-1.0215,-0.9871,-0.9761,-0.9651,-0.9415,-0.9409,-0.9155,-0.9079,-0.8834,-0.8665,-0.8734,-0.8336,-0.8309,-0.8287,-0.8454,-0.8455,-0.8459,-0.8502,-0.8596,0,0,0,0,0,-1.1189,-1.0984,-1.0652,-1.046,-1.0348,-1.0076,-0.9939,-0.9797,-0.9546,-0.9445,-0.9215,-0.8973,-0.8737,-0.8588,-0.8354,-0.8108,-0.8026,-0.8016,-0.802,-0.8024,-0.8006,-0.786,-0.7851,-0.7949,-0.7949,-0.7949,0,0,-1.1217,-1.0979,-1.0864,-1.0494,-1.0298,-1.0088,-0.9995,-0.9776,-0.9616,-0.941,-0.9145,-0.8969,-0.8681,-0.8424,-0.8298,-0.8276,-0.7962,-0.8016,-0.8022,-0.8001,-0.7853,-0.7844,-0.7836,-0.7945,-0.7946,-0.7946,0,0,-1.1162,-1.0964,-1.078,-1.0586,-1.0292,-1.0112,-1.0069,-0.9741,-0.9617,-0.9348,-0.9188,-0.8994,-0.8595,-0.8396,-0.8242,-0.8114,-0.8,-0.8045,-0.8059,-0.792,-0.7912,-0.7904,-0.7854,-0.7839,-0.8029,-0.803,-0.803,0,-1.1234,-1.0914,-1.0699,-1.0489,-1.0329,-1.0139,-0.9948,-0.977,-0.9414,-0.9306,-0.9288,-0.8783,-0.8576,-0.8267,-0.8237,-0.812,-0.8059,-0.8081,-0.7932,-0.7921,-0.791,-0.7859,-0.7842,-0.8037,-0.8036,-0.8035,-0.8034,0,-1.1016,-1.0796,-1.0683,-1.0347,-1.0175,-0.9977,-0.9728,-0.958,-0.9454,-0.9276,-0.9002,-0.8748,-0.8458,-0.8375,-0.8249,-0.8048,-0.8042,-0.7982,-0.7948,-0.7911,-0.7859,-0.7838,-0.8047,-0.8044,-0.8042,-0.804,0,0,-1.1067,-1.0617,-1.0578,-1.0423,-1.0085,-0.9909,-0.9702,-0.9422,-0.9297,-0.9059,-0.8874,-0.8543,-0.8484,-0.8311,-0.8161,-0.8039,-0.7949,-0.7991,-0.798,-0.7989,-0.7707,-0.7752,-0.7733,-0.7875,-0.787,-0.7867,-0.773,0,-1.0963,-1.0585,-1.0386,-1.0091,-0.9884,-0.97,-0.9518,-0.929,-0.9118,-0.8914,-0.8722,-0.849,-0.8432,-0.8326,-0.8198,-0.7988,-0.7888,-0.7995,-0.7696,-0.7688,-0.7769,-0.7706,-0.7753,-0.7636,-0.7708,-0.7705,-0.7702,0,-1.079,-1.0557,-1.0243,-0.9928,-0.9833,-0.9674,-0.94,-0.921,-0.8946,-0.8829,-0.8637,-0.849,-0.826,-0.8249,-0.7925,-0.8003,-0.7869,-0.7747,-0.7737,-0.7697,-0.769,-0.766,-0.7594,-0.7575,-0.7669,-0.7671,-0.7674,0,-1.0855,-1.0462,-1.0222,-1.0095,-0.9724,-0.9615,-0.9455,-0.9193,-0.9037,-0.8798,-0.8693,-0.843,-0.8284,-0.8082,-0.7865,-0.7878,-0.7562,-0.7534,-0.7454,-0.746,-0.7391,-0.7398,-0.7299,-0.7315,-0.7315,-0.7315,-0.7316,0,-1.0756,-1.057,-1.0246,-1.0098,-0.9883,-0.9656,-0.9448,-0.9273,-0.9042,-0.8854,-0.868,-0.8506,-0.8234,-0.8026,-0.7855,-0.7611,-0.7548,-0.7443,-0.7399,-0.7456,-0.7469,-0.7361,-0.7361,-0.731,-0.7312,-0.7313,-0.7313,0,-1.0789,-1.0566,-1.0292,-0.9964,-0.9877,-0.9733,-0.9449,-0.9297,-0.9118,-0.8882,-0.8814,-0.8531,-0.8276,-0.8043,-0.7704,-0.7589,-0.7341,-0.7287,-0.7431,-0.7406,-0.7338,-0.7346,-0.7161,-0.7123,-0.7172,-0.7172,-0.7172,0,-1.0739,-1.0591,-1.0249,-1.0112,-0.9956,-0.9738,-0.9579,-0.9349,-0.919,-0.8879,-0.8763,-0.8498,-0.8272,-0.7874,-0.7635,-0.7374,-0.731,-0.7264,-0.7269,-0.733,-0.7303,-0.7313,-0.7294,-0.7265,-0.7266,-0.7266,-0.7267,0,-1.0672,-1.0569,-1.0348,-1.0088,-0.9904,-0.9687,-0.9465,-0.9362,-0.909,-0.8919,-0.8659,-0.8485,-0.8141,-0.7877,-0.759,-0.7419,-0.7295,-0.7268,-0.7235,-0.7288,-0.7376,-0.7323,-0.7434,-0.7272,-0.7271,-0.7271,-0.7271,-0.727,-1.0656,-1.0517,-1.0254,-1.0013,-0.9823,-0.9619,-0.9459,-0.9262,-0.9042,-0.8746,-0.8624,-0.8359,-0.8096,-0.7698,-0.753,-0.7316,-0.729,-0.7244,-0.723,-0.7221,-0.723,-0.7416,-0.7264,-0.7263,-0.7263,-0.7262,-0.7262,0,-1.0576,-1.0399,-1.0181,-0.9876,-0.9686,-0.9593,-0.9342,-0.9188,-0.8958,-0.8726,-0.8509,-0.8209,-0.7953,-0.7696,-0.7425,-0.7303,-0.724,-0.7239,-0.7243,-0.7205,-0.7271,-0.7325,-0.7295,-0.7295,-0.7295,-0.7295,-0.7295,-0.7295,-1.0512,-1.0269,-1.0135,-0.9795,-0.9617,-0.9359,-0.9223,-0.9033,-0.8847,-0.8521,-0.8309,-0.8145,-0.79,-0.7611,-0.737,-0.7301,-0.7206,-0.7221,-0.7136,-0.7201,-0.7201,-0.72,-0.7249,-0.7204,-0.7204,-0.7086,-0.7085,-0.7084]}]]